Wind_Speed
42 43 43 43 44 46 49 49 48 47 48 51 53 53 52 51 51 50 49 51 50 54 58 52 50 51 51 54 55 55 54 50 48 48 49 50 51 51 53 54 54 55 53
37 38 40 43 42 42 42 44 45 45 44 44 46 47 46 47 48 50 50 48 50 52 53 51 55 52 51 53 55 56 56 54 56 53 53 53 53 55 55 54 54 54 52
40 40 39 41 41 40 41 43 44 43 43 44 46 47 48 47 47 48 49 49 49 49 51 54 54 56 54 54 56 56 56 52 51 52 55 54 60 61 56 56 53 56 48
42 44 45 46 46 46 45 46 47 46 47 48 48 49 50 50 49 49 48 47 48 48 50 52 52 54 56 58 60 61 61 60 60 59 61 54 51 53 55 55 57 59 58
53 49 47 46 46 45 47 49 50 50 51 52 54 55 57 56 55 54 54 55 53 51 52 54 54 55 55 55 58 60 62 62 63 49 52 64 63 66 62 61 55 45 39
53 51 51 49 49 52 54 56 57 58 61 61 63 65 66 66 65 63 62 63 65 62 58 57 59 59 58 59 59 60 60 60 60 64 66 66 65 64 62 59 61 65 59
52 54 56 56 57 59 57 59 59 58 60 62 65 69 70 72 71 72 73 72 72 71 69 63 63 63 64 62 62 62 62 61 60 60 59 57 58 58 58 55 55 45 53
53 52 54 57 58 56 56 57 57 55 56 58 58 62 66 67 70 72 75 76 77 78 77 75 68 66 67 67 65 63 63 64 63 60 60 58 56 55 54 54 53 53 51
52 51 50 52 54 56 57 56 56 59 60 60 63 65 67 72 74 75 78 80 81 79 77 75 74 71 70 71 69 67 64 64 65 60 60 60 60 58 57 55 54 56 55
52 53 55 55 54 55 59 60 64 68 70 72 75 79 86 84 81 80 81 87 86 85 81 78 77 75 74 74 72 71 69 66 67 67 67 64 63 62 62 64 61 53 50
52 53 54 57 61 65 68 72 76 79 80 83 85 89 95 96 93 97 90 85 89 91 85 79 79 79 78 77 76 72 71 70 70 68 67 67 66 64 66 63 58 55 56
54 59 62 66 71 76 80 84 86 88 90 94 97 100 106 106 108 104 100 94 90 91 90 86 81 79 78 79 77 75 72 70 71 71 71 68 67 67 71 59 60 61 61
61 65 69 74 78 82 85 88 90 94 98 101 103 104 102 99 95 92 92 86 89 91 92 90 84 80 76 77 76 74 73 70 69 68 68 70 70 68 74 64 61 63 63
66 71 75 78 82 86 90 94 98 100 100 99 97 99 96 91 88 82 76 77 78 77 77 79 79 77 75 75 75 74 73 69 68 68 66 66 66 69 72 71 67 65 61
73 76 79 83 87 92 97 100 100 101 101 102 101 93 83 71 67 64 59 59 61 60 59 65 69 72 72 72 72 70 71 69 65 62 64 64 65 65 65 67 69 69 66
78 81 85 88 92 94 94 96 100 99 94 84 79 71 62 58 55 51 48 47 46 49 52 55 58 60 64 69 69 68 65 65 63 61 56 58 58 61 64 62 62 64 64
81 85 89 92 92 92 92 87 77 72 68 61 59 58 54 48 44 42 41 43 42 42 43 47 50 51 53 57 62 66 66 63 61 59 59 59 56 64 59 58 59 61 63
85 87 87 86 80 74 73 72 67 61 54 54 53 50 47 41 39 40 38 39 40 40 39 43 45 45 47 51 53 56 58 61 61 60 61 64 68 62 56 62 64 58 65
82 79 70 65 66 67 68 65 61 54 48 47 47 47 45 42 37 34 33 33 35 38 40 42 44 44 43 45 47 49 52 55 57 55 59 64 68 71 61 61 62 66 67
66 63 64 63 61 60 62 61 57 51 47 43 43 41 39 38 35 33 31 29 28 31 36 40 42 43 45 47 47 49 51 51 54 57 56 59 62 63 67 63 58 58 60
65 63 63 63 62 61 58 59 54 48 43 41 39 38 37 34 33 31 29 28 27 27 28 31 34 39 44 49 51 54 54 55 56 55 56 60 57 62 59 60 59 58 59
64 62 62 61 59 58 57 56 50 45 41 37 35 35 34 33 32 32 31 29 29 29 28 28 30 32 35 38 41 45 49 51 52 53 57 56 59 62 64 65 61 61 61
62 61 60 57 57 57 53 51 45 38 36 34 33 32 32 32 32 32 33 33 31 31 31 31 31 31 33 35 37 39 40 43 46 48 51 53 55 58 60 61 62 64 64
60 56 57 59 57 53 47 43 37 33 32 32 33 34 35 35 36 37 37 37 37 36 35 35 35 35 36 36 37 39 40 42 44 46 48 50 53 55 57 59 61 61 62
56 61 62 56 51 45 42 38 34 33 33 34 36 38 39 40 41 42 42 42 41 41 41 41 40 40 40 41 41 42 43 44 45 47 50 52 53 55 57 58 59 61 63
60 60 54 48 42 40 39 37 36 36 37 39 41 42 43 43 44 45 46 46 45 45 44 44 43 43 44 44 45 46 47 48 49 50 52 54 55 57 58 60 61 63 65
Wind_Direction
275 274 274 272 269 267 267 269 270 269 269 272 273 272 270 271 273 275 276 279 281 280 271 271 272 270 271 272 272 274 276 276 278 277 273 269 268 267 266 268 270 273 275
275 277 275 272 274 275 274 272 272 272 272 271 272 273 272 272 275 276 277 277 279 280 279 280 279 270 270 270 270 272 274 276 276 273 273 274 274 272 272 272 274 275 276
276 274 273 273 275 275 277 279 278 279 281 282 280 278 278 277 276 278 280 280 279 279 279 279 276 274 275 273 269 268 268 267 269 275 273 275 279 269 270 273 279 273 268
279 273 270 273 275 276 276 277 279 282 281 281 280 280 279 279 279 278 277 278 280 281 281 279 277 275 274 274 274 274 274 270 265 269 269 267 269 270 274 274 273 275 270
278 279 280 277 279 281 280 283 286 286 283 282 281 281 279 280 280 280 279 278 276 276 276 277 276 274 273 273 273 273 272 272 272 279 269 265 268 271 274 275 274 269 268
272 272 274 278 282 286 284 283 286 286 288 288 288 286 284 284 283 282 280 280 282 279 277 275 274 272 269 269 271 272 272 271 270 268 271 273 272 273 272 270 266 270 271
282 277 277 278 282 287 288 287 287 287 286 287 287 285 284 283 285 284 282 281 280 279 279 275 273 270 270 267 269 270 270 270 270 269 270 269 268 268 267 266 266 263 268
289 286 284 284 284 285 284 284 285 287 288 287 288 289 287 288 288 285 283 280 279 278 276 276 272 271 269 266 264 266 267 266 265 263 263 263 262 262 263 263 262 263 262
287 286 282 281 282 283 285 287 288 290 290 288 289 288 290 292 292 287 282 279 277 276 273 271 270 269 269 269 266 263 261 262 260 258 259 262 264 263 263 262 263 263 264
285 285 287 287 287 286 285 285 288 290 290 289 290 294 298 294 289 286 283 278 275 274 272 269 268 266 264 265 265 263 262 260 260 260 259 259 262 263 264 263 264 264 265
284 285 286 287 289 290 292 291 289 289 290 292 293 293 295 295 293 289 282 277 274 272 271 269 266 266 264 263 264 264 262 259 257 258 258 259 261 264 263 263 262 260 264
289 290 292 295 295 295 295 296 296 296 295 294 292 291 293 292 291 288 279 276 271 269 267 265 263 261 263 262 262 262 262 261 260 257 258 259 260 262 262 257 258 260 263
289 292 293 295 297 298 298 298 298 297 297 298 297 297 297 295 290 285 282 278 270 264 262 261 259 258 258 258 260 261 261 261 260 260 259 258 259 261 258 263 256 259 260
293 295 297 298 298 298 299 299 300 301 301 300 298 298 297 292 288 284 275 269 270 267 261 256 255 254 254 254 256 258 260 260 260 260 260 259 259 259 260 264 267 267 267
295 297 298 298 298 300 302 302 302 302 301 301 302 300 298 294 287 283 277 273 270 264 262 263 259 255 254 255 255 256 258 260 260 261 262 262 262 262 262 261 262 264 266
296 297 298 300 301 302 303 304 305 304 305 305 306 306 303 298 292 282 276 273 268 267 265 264 257 255 256 256 256 257 258 258 258 258 255 258 264 265 264 263 262 263 263
297 299 300 301 302 303 305 306 305 306 308 309 310 310 309 304 303 294 281 274 270 267 265 263 260 257 254 254 255 255 256 258 259 256 247 252 259 255 252 260 260 258 257
300 301 302 304 307 308 309 308 307 303 303 307 309 312 312 311 308 300 290 278 270 265 263 264 263 262 260 257 256 255 255 255 255 255 252 249 252 257 255 257 255 254 257
302 305 306 306 310 313 316 315 311 309 303 305 308 312 316 315 313 307 297 285 275 269 268 262 260 261 261 260 259 260 258 253 251 251 253 250 251 253 258 257 256 252 254
304 303 304 305 310 313 320 319 314 309 306 305 306 307 309 312 310 309 306 299 290 279 272 267 262 258 259 258 258 257 258 257 255 249 251 253 253 252 256 256 254 254 253
305 305 304 304 305 309 315 318 313 307 304 303 304 304 303 303 304 304 302 302 299 293 284 279 272 267 263 260 259 258 255 258 259 256 254 253 254 254 255 251 251 252 251
305 305 305 306 307 307 311 312 309 306 305 305 307 307 306 305 303 301 301 301 300 296 291 285 280 277 272 267 263 261 260 257 258 258 257 257 255 253 255 257 254 251 251
305 305 306 307 306 306 308 307 305 301 303 303 304 305 306 306 306 305 303 302 299 296 293 290 286 281 277 274 270 267 264 262 260 259 258 256 255 254 253 252 249 250 253
307 307 308 306 305 305 304 303 301 298 299 301 302 304 306 307 307 307 306 305 303 299 295 291 287 284 281 278 274 272 270 267 265 263 261 260 260 258 256 256 255 255 253
308 310 309 306 303 302 301 298 297 297 297 299 303 306 307 307 306 305 304 302 300 298 296 293 291 289 287 283 279 276 273 270 268 268 267 265 263 261 260 259 258 258 258
312 311 309 306 303 299 296 293 293 295 299 303 306 307 308 308 307 306 305 303 302 299 296 293 290 287 284 282 281 279 278 276 272 270 268 266 265 265 265 264 263 261 261
Height
5675 5673 5672 5671 5670 5670 5668 5667 5666 5665 5664 5663 5663 5663 5662 5661 5659 5657 5655 5655 5652 5652 5650 5648 5649 5647 5647 5647 5646 5645 5644 5644 5644 5647 5646 5646 5645 5645 5644 5643 5643 5641 5641
5665 5663 5661 5660 5659 5658 5657 5656 5656 5654 5652 5651 5650 5649 5648 5646 5645 5644 5643 5641 5640 5640 5637 5635 5635 5632 5631 5631 5630 5630 5630 5631 5630 5633 5631 5630 5629 5627 5628 5628 5628 5626 5626
5655 5653 5651 5650 5649 5647 5646 5645 5644 5642 5640 5638 5637 5636 5635 5633 5632 5630 5629 5629 5626 5625 5623 5621 5621 5618 5618 5617 5615 5613 5614 5616 5609 5612 5615 5612 5612 5612 5613 5613 5613 5612 5612
5645 5643 5642 5640 5638 5636 5634 5633 5632 5629 5627 5626 5624 5623 5621 5619 5617 5616 5615 5614 5613 5612 5610 5607 5605 5603 5602 5600 5598 5598 5597 5596 5597 5597 5597 5597 5598 5597 5597 5598 5598 5596 5595
5634 5633 5631 5629 5627 5625 5623 5621 5619 5616 5614 5611 5610 5608 5607 5605 5602 5599 5598 5598 5598 5598 5596 5593 5591 5588 5586 5585 5582 5582 5580 5580 5581 5581 5572 5580 5583 5580 5581 5582 5583 5581 5578
5621 5619 5619 5617 5615 5612 5610 5607 5605 5602 5600 5596 5593 5591 5590 5587 5584 5581 5578 5579 5580 5580 5580 5578 5575 5573 5569 5568 5566 5565 5564 5563 5564 5564 5564 5565 5566 5565 5565 5566 5567 5566 5567
5610 5608 5606 5603 5600 5597 5594 5591 5588 5586 5583 5579 5576 5574 5572 5569 5564 5561 5559 5558 5559 5558 5558 5559 5558 5556 5552 5551 5550 5548 5548 5547 5546 5545 5547 5549 5548 5548 5549 5549 5550 5553 5550
5595 5594 5591 5588 5583 5580 5577 5574 5572 5568 5564 5561 5559 5556 5553 5549 5545 5541 5537 5534 5535 5536 5536 5535 5536 5537 5534 5531 5530 5532 5532 5531 5530 5529 5529 5531 5531 5531 5532 5534 5534 5533 5535
5582 5579 5577 5573 5569 5565 5561 5556 5552 5549 5546 5542 5538 5534 5531 5530 5524 5518 5513 5510 5511 5511 5511 5511 5511 5513 5513 5510 5510 5511 5512 5513 5512 5513 5513 5515 5517 5516 5517 5517 5518 5518 5519
5568 5564 5559 5555 5552 5549 5545 5541 5536 5532 5528 5522 5516 5509 5503 5499 5497 5494 5488 5485 5485 5486 5487 5487 5487 5487 5488 5489 5488 5488 5492 5494 5492 5494 5496 5497 5499 5500 5501 5501 5501 5502 5502
5554 5549 5545 5541 5537 5532 5526 5521 5516 5511 5505 5498 5492 5486 5479 5472 5469 5464 5460 5457 5455 5457 5460 5462 5462 5461 5463 5465 5465 5467 5469 5471 5472 5474 5476 5478 5480 5483 5482 5482 5484 5486 5486
5538 5534 5528 5522 5517 5510 5504 5496 5488 5482 5478 5472 5465 5460 5451 5443 5437 5434 5429 5426 5424 5424 5429 5432 5434 5435 5437 5439 5440 5443 5444 5447 5449 5451 5455 5457 5459 5462 5462 5462 5465 5469 5470
5524 5518 5511 5503 5494 5486 5480 5473 5466 5458 5451 5443 5435 5427 5420 5410 5403 5397 5393 5391 5389 5388 5393 5398 5402 5407 5410 5413 5415 5418 5421 5423 5426 5429 5432 5434 5437 5440 5442 5444 5446 5449 5451
5506 5499 5491 5484 5474 5465 5457 5448 5440 5431 5422 5412 5404 5393 5385 5376 5365 5361 5358 5357 5355 5356 5358 5363 5370 5376 5382 5386 5390 5395 5398 5400 5403 5407 5410 5412 5415 5418 5422 5424 5426 5428 5430
5487 5480 5473 5464 5455 5444 5431 5422 5411 5399 5389 5379 5370 5359 5351 5344 5335 5329 5328 5330 5332 5333 5335 5339 5345 5350 5356 5362 5367 5371 5374 5378 5382 5385 5388 5391 5394 5397 5399 5403 5406 5408 5411
5469 5460 5452 5444 5434 5424 5414 5399 5381 5372 5363 5352 5341 5332 5326 5318 5314 5310 5309 5310 5311 5313 5316 5319 5323 5327 5333 5339 5344 5348 5352 5355 5360 5364 5369 5372 5373 5376 5378 5382 5385 5388 5390
5450 5441 5432 5422 5412 5402 5391 5382 5373 5353 5341 5336 5328 5319 5310 5305 5298 5295 5293 5295 5295 5298 5299 5302 5305 5308 5312 5317 5321 5325 5330 5334 5338 5342 5347 5351 5354 5356 5359 5362 5366 5369 5371
5430 5421 5411 5401 5390 5380 5370 5361 5351 5344 5337 5325 5317 5311 5302 5294 5288 5284 5281 5281 5282 5283 5284 5287 5290 5292 5294 5297 5301 5304 5308 5312 5316 5320 5324 5328 5333 5337 5338 5342 5345 5346 5351
5409 5399 5390 5382 5374 5364 5353 5342 5333 5326 5321 5315 5308 5299 5292 5285 5280 5277 5273 5271 5269 5270 5271 5272 5274 5276 5279 5281 5283 5286 5289 5292 5295 5299 5302 5306 5310 5315 5318 5322 5323 5326 5329
5391 5383 5375 5366 5358 5349 5339 5329 5320 5312 5307 5303 5297 5292 5286 5280 5275 5270 5266 5262 5260 5258 5258 5259 5260 5261 5263 5265 5267 5270 5272 5274 5276 5279 5282 5286 5289 5293 5297 5300 5302 5305 5308
5374 5366 5358 5350 5343 5335 5326 5318 5309 5303 5297 5291 5286 5281 5277 5273 5269 5264 5260 5256 5253 5250 5248 5248 5247 5247 5248 5249 5250 5252 5254 5256 5258 5260 5263 5266 5269 5273 5276 5279 5281 5284 5286
5358 5350 5342 5335 5327 5320 5313 5306 5298 5292 5287 5281 5276 5271 5267 5263 5259 5256 5252 5248 5245 5243 5240 5238 5237 5236 5236 5235 5235 5236 5237 5238 5240 5241 5244 5246 5248 5251 5254 5258 5261 5263 5266
5341 5334 5327 5320 5313 5306 5300 5293 5287 5281 5277 5273 5269 5264 5259 5255 5251 5248 5244 5241 5237 5234 5231 5229 5227 5226 5225 5224 5223 5223 5222 5223 5224 5224 5225 5227 5229 5231 5233 5236 5238 5242 5244
5326 5319 5311 5304 5297 5291 5286 5280 5275 5271 5268 5264 5260 5256 5252 5248 5243 5239 5236 5232 5228 5225 5222 5219 5217 5215 5212 5211 5210 5209 5209 5209 5209 5209 5209 5210 5211 5212 5213 5215 5217 5218 5220
5311 5303 5295 5287 5282 5277 5273 5269 5265 5262 5258 5255 5251 5247 5243 5238 5234 5229 5225 5221 5217 5213 5210 5207 5205 5202 5200 5198 5196 5194 5193 5193 5193 5193 5192 5193 5193 5194 5194 5195 5196 5197 5199
5296 5287 5279 5273 5268 5265 5261 5258 5255 5251 5248 5245 5241 5236 5232 5227 5223 5218 5213 5208 5204 5200 5196 5193 5190 5187 5185 5182 5180 5178 5176 5175 5174 5174 5173 5173 5172 5173 5173 5174 5175 5176 5176